Wind_Speed
8 9 12 14 16 18 19 20 20 20 19 19 19 17 16 14 14 14 13 12 11 11 10 10 9 8 8 8 8 9 9 10 11 11 12 13 14 15 16 16 17 17 18 18 19 19 19 19 19
9 10 11 13 15 15 16 17 17 18 19 19 19 17 15 14 14 14 14 13 12 11 11 10 10 9 9 9 9 10 10 11 12 13 14 15 16 16 17 17 17 18 19 19 19 19 20 20 20
11 10 11 13 14 14 14 15 16 18 18 18 17 16 16 15 15 14 14 13 13 11 10 10 9 9 9 9 9 10 11 12 14 14 15 16 16 17 17 18 19 19 19 20 20 20 21 21 22
13 12 12 12 13 13 13 15 16 17 18 17 17 16 16 16 15 14 14 13 12 11 10 10 9 9 9 9 10 11 12 14 14 15 15 16 17 18 18 19 20 20 20 21 21 22 22 22 23
15 14 13 13 13 13 13 14 16 17 17 17 16 16 16 15 14 14 13 12 11 11 10 10 9 9 10 10 12 13 14 14 15 16 16 17 18 19 19 20 20 20 21 22 22 23 23 24 24
17 16 14 14 14 14 13 14 15 17 16 16 16 16 15 15 14 14 13 12 12 11 10 10 10 11 11 13 14 14 14 15 15 16 17 18 19 19 20 20 20 21 22 23 23 24 24 25 25
19 18 17 16 16 15 14 14 15 16 16 15 15 16 15 15 14 14 13 13 12 11 11 11 11 12 12 13 13 13 14 15 16 17 18 19 19 20 21 21 22 23 24 24 25 25 26 26 27
22 21 20 19 18 17 16 16 15 16 15 15 15 15 16 15 14 14 14 13 13 12 12 12 12 12 12 12 13 14 15 16 17 18 19 20 21 22 22 23 23 24 25 25 26 26 27 27 28
25 24 22 21 19 18 18 17 16 16 15 15 15 15 15 15 14 14 14 14 13 12 12 12 12 12 13 13 14 16 17 18 18 19 20 22 22 23 24 24 25 25 26 26 27 27 28 29 29
28 26 24 23 21 20 19 19 18 17 16 16 15 15 15 15 14 14 14 14 13 13 13 13 13 14 14 15 16 17 19 19 20 21 22 23 24 25 25 26 26 27 27 28 28 28 29 30 30
31 28 27 26 24 23 22 21 20 19 18 17 17 16 16 15 15 15 14 14 14 14 14 14 15 15 16 17 18 18 20 21 21 22 23 24 25 26 27 27 28 28 28 29 29 30 30 31 31
34 31 30 29 27 26 24 23 22 21 20 19 18 17 17 16 16 16 15 15 15 15 15 15 16 17 18 18 19 20 21 22 23 24 25 26 27 28 29 29 29 30 30 30 31 31 32 32 33
36 34 33 31 30 28 27 26 24 23 22 21 20 18 18 17 17 17 16 16 15 16 16 16 17 18 19 20 21 22 23 24 25 26 27 27 28 29 30 30 31 31 32 32 32 33 33 34 34
38 37 36 34 32 31 30 28 26 24 25 24 22 20 20 19 19 18 17 17 17 17 17 17 18 20 21 22 23 24 25 26 27 28 29 29 30 31 31 32 32 32 33 34 34 34 34 35 36
41 40 39 37 35 34 33 31 28 27 27 26 24 23 21 21 20 20 20 19 20 20 20 20 20 21 23 24 25 26 27 28 29 30 30 31 32 32 33 33 33 34 35 35 35 35 36 36 37
44 43 41 39 38 37 36 33 31 31 30 28 27 26 24 23 23 23 23 22 22 23 23 23 23 24 25 26 26 27 29 30 31 31 32 32 33 34 34 34 35 36 36 36 36 36 36 37 37
46 45 42 41 41 40 39 35 33 33 32 30 29 28 27 26 25 25 25 25 25 25 26 26 27 27 28 29 29 30 31 32 33 33 33 34 34 35 35 36 36 37 37 37 37 37 37 38 38
45 44 44 43 42 42 41 38 37 36 35 33 31 31 30 28 28 28 28 27 27 27 28 28 29 30 31 31 32 32 33 34 34 35 35 35 36 36 36 37 37 37 38 38 38 38 38 39 39
45 45 45 43 43 43 42 41 39 39 37 35 34 33 33 31 31 30 30 30 30 30 31 31 32 32 33 33 34 34 35 35 35 35 36 37 37 37 38 38 38 38 38 38 39 39 39 39 39
46 46 44 43 42 43 43 42 40 39 39 37 36 35 34 33 33 32 32 33 33 33 32 33 33 33 33 34 35 35 35 35 35 36 37 38 38 38 38 38 38 38 39 39 39 39 39 39 39
47 45 43 42 42 43 44 43 41 40 39 38 37 36 36 35 34 34 34 34 34 33 33 33 34 34 35 35 35 36 36 36 36 37 38 38 38 38 38 38 38 39 39 39 39 39 39 40 40
47 44 42 42 42 42 43 43 40 39 39 37 36 36 35 35 35 35 34 34 34 34 34 35 35 35 35 35 36 36 36 37 37 38 38 38 38 38 38 38 38 38 39 39 40 40 40 40 40
43 42 43 42 42 43 42 43 39 39 37 35 36 36 36 36 35 35 35 34 34 34 34 35 35 35 35 35 36 37 37 37 37 37 37 37 37 38 38 38 38 38 39 39 39 40 40 40 41
44 43 43 43 44 44 41 43 40 36 35 34 35 35 35 35 35 35 35 35 34 34 34 34 35 35 35 35 36 36 37 37 36 36 37 37 37 38 38 38 38 38 38 39 39 40 41 41 42
47 46 45 45 46 44 41 43 40 34 34 34 35 35 35 35 35 35 35 34 34 34 34 34 35 34 34 35 35 36 36 36 36 37 37 37 37 37 37 37 37 38 38 39 40 41 41 42 43
46 46 45 45 44 42 41 42 38 34 33 34 34 35 35 35 35 35 35 34 34 34 34 34 34 34 34 35 35 35 35 35 36 36 36 36 36 36 37 37 38 38 39 40 40 41 42 43 44
45 44 42 43 43 43 42 39 36 33 32 32 32 33 33 34 34 34 34 34 34 33 33 33 33 34 34 34 34 34 35 35 35 35 35 36 36 36 37 37 38 39 39 40 41 42 43 44 45
45 43 43 44 43 43 42 39 35 32 31 30 30 30 31 31 32 32 32 32 33 33 33 33 33 33 33 33 33 34 34 34 34 35 35 36 36 36 37 37 38 39 40 41 42 43 44 45 46
47 47 46 44 44 43 41 38 32 30 29 29 28 28 28 29 29 29 30 30 31 31 31 31 31 31 32 32 32 32 33 33 33 34 34 35 35 36 37 37 38 39 40 41 42 43 45 45 46
46 45 45 45 44 42 40 36 32 30 28 28 27 27 27 27 27 27 28 29 30 30 30 29 29 30 30 31 31 31 32 32 33 33 34 35 35 36 37 37 38 39 40 42 43 44 45 46 47
Wind_Direction
220 217 214 209 210 211 211 211 212 212 212 211 211 211 209 205 205 209 212 214 216 219 224 230 238 244 252 259 264 270 275 279 283 285 287 288 290 292 293 293 294 295 296 296 296 296 295 295 295
218 216 214 211 210 211 210 210 209 208 210 211 210 210 209 207 206 210 213 214 216 222 227 234 241 247 253 259 265 269 274 279 283 286 286 288 290 291 292 293 294 295 295 295 296 296 295 295 295
218 217 216 214 212 210 210 208 205 205 207 208 208 206 207 207 208 211 215 216 219 225 229 235 242 247 253 260 265 270 276 281 285 287 288 289 290 292 293 294 294 295 295 294 295 295 295 294 294
221 219 218 217 212 210 209 207 205 205 206 206 206 205 207 208 209 213 216 219 222 228 233 237 244 249 256 262 268 275 280 283 284 287 289 290 291 292 293 294 295 295 295 295 295 295 295 294 293
222 221 220 218 214 212 210 208 207 206 206 206 205 205 209 210 210 214 219 223 226 231 235 239 246 252 259 267 273 278 281 283 285 287 288 290 291 292 293 294 295 295 295 296 296 295 294 293 293
225 224 223 221 218 216 213 211 208 207 208 207 206 208 210 212 212 216 222 228 229 232 236 242 250 258 266 272 277 280 282 285 287 288 289 290 291 293 294 295 295 295 295 296 296 295 294 293 293
227 226 225 223 221 220 217 215 211 210 211 210 209 211 212 214 214 219 225 230 232 234 240 248 256 264 270 275 280 282 285 287 288 290 291 292 293 293 294 295 295 295 295 295 295 295 294 293 293
227 226 226 225 224 223 223 220 215 213 212 211 210 214 217 218 218 219 226 231 234 239 246 254 261 267 273 278 281 285 287 289 290 292 293 293 294 295 294 294 295 295 295 295 295 295 294 293 293
228 227 228 228 227 225 226 225 222 218 215 213 212 215 220 222 222 222 227 234 240 244 250 257 265 271 277 281 285 287 289 290 291 293 294 295 296 296 295 295 295 295 295 296 295 295 294 294 293
228 229 229 230 229 227 227 228 226 224 221 218 217 219 223 226 227 229 232 239 244 248 255 263 268 273 279 283 287 289 291 292 292 293 295 296 296 296 295 295 294 295 296 296 296 296 295 294 294
230 230 230 230 230 228 229 229 228 228 226 225 223 224 227 229 232 234 238 242 247 253 260 266 270 275 280 285 288 290 292 293 294 295 296 297 297 297 296 295 295 295 295 296 295 295 294 294 293
230 229 231 232 231 230 229 229 230 230 231 229 227 228 231 233 235 238 241 244 250 256 262 267 272 277 282 285 288 290 293 294 295 296 296 296 297 297 297 296 295 295 296 295 295 294 294 294 293
229 229 231 232 233 232 232 231 231 232 233 233 231 231 233 236 238 241 244 248 253 259 264 268 274 278 282 285 288 290 293 294 295 296 296 296 296 297 297 296 295 295 295 295 295 295 294 294 294
230 230 231 232 233 233 234 233 233 233 235 236 235 234 236 240 243 246 249 253 257 261 265 269 274 279 282 285 288 290 292 294 295 295 296 295 295 295 295 295 295 295 295 295 295 295 294 294 294
230 230 231 232 232 233 234 234 234 235 237 239 239 239 240 243 246 250 254 257 260 264 267 271 274 278 281 284 286 288 291 292 293 294 294 294 294 294 294 294 294 295 295 295 294 293 293 294 294
231 231 231 232 233 233 235 235 236 237 239 241 243 244 244 246 250 254 258 260 262 266 270 273 277 279 281 283 285 287 289 291 292 293 293 293 293 293 293 293 293 294 294 295 294 293 294 294 295
231 232 232 232 233 234 235 235 237 239 241 242 245 248 250 251 254 257 260 262 265 268 272 275 278 280 282 284 286 287 288 290 291 292 292 292 292 292 292 292 293 293 294 294 294 293 294 295 295
232 233 233 233 234 235 236 235 237 240 242 244 247 250 253 255 257 259 262 264 266 269 271 275 278 280 282 284 285 286 287 289 290 290 291 291 291 291 291 291 292 293 293 293 293 293 294 295 295
233 234 234 234 234 236 237 237 238 241 243 245 247 250 253 256 258 260 263 265 267 269 272 274 277 278 280 283 284 286 287 288 289 289 290 290 290 290 290 291 292 292 293 293 293 294 294 295 295
232 234 235 234 235 236 237 238 239 242 244 246 248 251 254 256 258 261 263 266 268 270 272 273 275 278 279 281 283 284 285 286 287 287 288 289 289 289 290 290 291 291 292 293 294 294 294 294 296
232 234 234 235 236 238 239 238 239 242 244 246 249 252 254 256 258 260 262 265 267 269 271 273 275 277 279 280 281 282 283 285 285 286 287 288 288 289 289 289 289 290 291 292 293 294 294 295 296
231 232 234 235 236 238 240 240 238 241 243 246 249 252 255 257 258 260 262 264 266 269 271 273 275 276 278 279 280 281 283 284 284 285 286 286 287 288 288 289 289 289 291 291 293 294 295 296 296
230 231 233 235 237 238 239 242 237 241 244 248 251 253 255 257 258 260 263 265 266 268 270 272 274 276 277 278 279 280 281 282 284 285 285 286 286 287 288 288 288 289 291 291 293 294 296 296 297
227 229 231 234 236 238 238 244 241 241 245 248 251 254 256 257 259 261 263 264 266 267 269 271 273 274 276 277 278 280 281 282 283 284 284 285 286 286 287 288 288 290 291 292 293 295 296 296 297
226 227 229 232 236 239 239 244 246 244 246 248 250 253 256 258 260 261 262 264 266 267 269 270 272 273 275 276 277 279 280 281 282 283 284 284 285 285 286 287 288 290 291 292 293 294 296 297 298
228 229 231 235 239 241 242 244 247 246 247 249 251 254 256 258 259 261 263 264 266 267 269 270 272 273 274 276 277 278 279 280 281 282 283 284 284 285 286 287 289 290 292 292 293 294 296 297 298
226 229 231 235 238 240 241 243 244 247 249 250 251 253 255 257 259 261 263 265 267 268 269 270 271 273 274 275 276 277 279 280 280 282 283 283 284 285 286 288 289 290 291 292 293 295 296 297 299
226 229 229 232 236 241 242 242 243 247 251 252 252 253 255 256 259 261 263 264 266 267 268 270 271 273 274 275 276 277 278 279 280 281 282 283 283 285 286 288 289 290 291 292 294 296 297 298 299
224 226 229 233 237 239 242 243 244 247 249 251 252 253 255 256 258 260 262 263 265 267 268 270 271 272 273 274 276 277 278 279 280 281 282 283 284 285 286 288 289 290 291 293 295 296 298 299 300
227 228 230 233 237 239 242 242 243 246 247 250 252 253 255 257 259 260 262 263 265 267 269 270 270 272 273 274 275 277 278 280 281 281 282 283 285 286 287 288 289 290 292 294 295 297 298 299 300
Height
5852 5853 5853 5855 5856 5857 5858 5860 5861 5864 5866 5868 5870 5872 5874 5877 5879 5882 5881 5881 5882 5883 5884 5884 5885 5885 5885 5885 5886 5886 5886 5885 5885 5884 5884 5883 5882 5881 5880 5879 5878 5877 5875 5874 5873 5871 5870 5869 5867
5851 5851 5853 5853 5854 5855 5857 5858 5860 5862 5864 5866 5868 5870 5872 5874 5876 5877 5878 5879 5880 5881 5882 5883 5883 5883 5884 5884 5884 5884 5884 5883 5883 5882 5882 5881 5880 5879 5878 5877 5875 5874 5873 5871 5870 5868 5867 5866 5864
5850 5850 5851 5851 5852 5853 5855 5856 5858 5859 5861 5864 5866 5868 5870 5872 5873 5874 5876 5877 5878 5879 5880 5881 5881 5882 5882 5882 5882 5882 5882 5881 5881 5880 5879 5878 5877 5876 5875 5874 5872 5871 5870 5868 5867 5865 5864 5863 5861
5848 5849 5850 5850 5851 5852 5853 5855 5856 5858 5860 5862 5864 5866 5868 5870 5872 5873 5874 5875 5876 5877 5878 5879 5879 5880 5880 5880 5880 5880 5879 5879 5878 5878 5877 5876 5875 5873 5872 5871 5869 5868 5866 5865 5864 5862 5860 5859 5857
5846 5847 5848 5848 5849 5850 5851 5853 5854 5856 5858 5860 5862 5864 5866 5868 5870 5871 5872 5873 5874 5876 5876 5877 5877 5878 5878 5878 5878 5877 5877 5876 5876 5875 5874 5873 5872 5870 5869 5867 5866 5864 5863 5861 5860 5858 5856 5855 5853
5844 5845 5846 5846 5847 5848 5850 5851 5852 5854 5856 5858 5860 5862 5864 5866 5868 5869 5870 5871 5872 5873 5874 5875 5875 5875 5876 5876 5875 5875 5874 5873 5873 5872 5871 5870 5868 5867 5866 5864 5862 5861 5859 5858 5856 5854 5852 5851 5849
5841 5842 5843 5843 5844 5846 5848 5849 5851 5852 5854 5856 5858 5860 5861 5864 5866 5867 5868 5869 5870 5871 5872 5872 5873 5873 5873 5873 5872 5872 5871 5871 5870 5869 5867 5866 5865 5864 5862 5860 5859 5857 5855 5854 5852 5850 5848 5846 5844
5837 5839 5839 5840 5842 5844 5846 5847 5848 5850 5852 5854 5856 5858 5859 5861 5863 5865 5865 5866 5867 5869 5869 5870 5870 5870 5870 5870 5870 5869 5868 5867 5866 5865 5864 5863 5861 5860 5858 5857 5855 5853 5851 5849 5847 5845 5843 5841 5839
5832 5836 5836 5838 5839 5841 5843 5844 5846 5848 5849 5851 5853 5855 5857 5858 5860 5862 5863 5864 5865 5866 5867 5867 5867 5867 5867 5867 5867 5866 5865 5864 5863 5862 5860 5859 5857 5856 5854 5852 5850 5849 5847 5845 5843 5840 5838 5836 5834
5827 5830 5833 5834 5836 5838 5840 5841 5843 5845 5847 5849 5851 5852 5854 5855 5857 5859 5861 5861 5862 5863 5863 5864 5864 5864 5864 5864 5863 5862 5861 5860 5859 5858 5856 5855 5853 5851 5850 5848 5846 5844 5842 5840 5837 5835 5832 5830 5828
5822 5826 5828 5829 5832 5834 5836 5838 5840 5842 5844 5846 5848 5849 5851 5852 5854 5856 5858 5859 5859 5860 5860 5860 5861 5861 5860 5860 5859 5858 5857 5856 5855 5854 5852 5850 5848 5846 5845 5843 5841 5838 5836 5834 5832 5829 5827 5824 5822
5816 5820 5822 5824 5827 5829 5832 5834 5836 5838 5840 5842 5844 5846 5847 5849 5851 5852 5854 5855 5856 5856 5856 5857 5857 5857 5856 5856 5855 5854 5853 5852 5850 5849 5847 5845 5843 5841 5839 5837 5835 5833 5831 5828 5826 5823 5821 5818 5815
5809 5813 5816 5819 5822 5824 5827 5829 5832 5834 5835 5837 5839 5842 5843 5845 5847 5848 5850 5851 5852 5853 5853 5853 5853 5852 5852 5851 5851 5850 5848 5847 5846 5844 5842 5840 5838 5836 5834 5832 5829 5827 5825 5822 5820 5817 5814 5812 5809
5802 5805 5809 5812 5816 5818 5821 5824 5827 5830 5831 5832 5835 5837 5839 5841 5842 5844 5845 5846 5847 5848 5849 5849 5849 5848 5848 5847 5846 5845 5843 5842 5840 5838 5836 5834 5832 5830 5828 5826 5823 5821 5818 5816 5813 5810 5808 5805 5802
5793 5798 5801 5805 5809 5812 5815 5818 5822 5824 5825 5828 5830 5832 5835 5836 5838 5839 5840 5842 5842 5843 5844 5844 5844 5844 5843 5843 5841 5840 5838 5836 5835 5833 5830 5828 5826 5824 5822 5820 5817 5814 5812 5809 5806 5803 5801 5798 5794
5784 5789 5794 5799 5802 5805 5809 5813 5816 5817 5819 5822 5824 5827 5829 5831 5833 5834 5835 5836 5837 5837 5838 5838 5839 5839 5838 5837 5836 5834 5832 5831 5829 5827 5824 5822 5820 5817 5815 5813 5810 5807 5805 5802 5799 5796 5793 5790 5787
5775 5781 5787 5791 5794 5797 5801 5806 5809 5811 5813 5816 5819 5821 5823 5825 5827 5828 5829 5830 5831 5831 5831 5832 5832 5832 5831 5830 5829 5828 5826 5824 5822 5820 5817 5815 5813 5810 5808 5806 5803 5800 5797 5794 5791 5788 5785 5782 5779
5770 5774 5778 5783 5787 5790 5793 5798 5801 5803 5807 5810 5812 5814 5816 5819 5821 5822 5823 5824 5825 5825 5825 5825 5825 5824 5824 5823 5822 5820 5819 5817 5815 5812 5810 5808 5805 5803 5801 5798 5795 5792 5790 5787 5784 5781 5777 5774 5771
5760 5764 5769 5775 5779 5782 5785 5790 5793 5796 5800 5803 5806 5808 5810 5812 5813 5814 5816 5817 5818 5819 5819 5818 5818 5817 5816 5815 5814 5812 5811 5809 5807 5805 5802 5800 5798 5795 5793 5790 5787 5785 5782 5779 5776 5773 5769 5766 5763
5750 5755 5761 5766 5769 5773 5777 5781 5785 5788 5792 5796 5798 5801 5803 5805 5806 5808 5808 5809 5810 5811 5811 5811 5810 5809 5808 5807 5806 5804 5803 5801 5799 5797 5794 5792 5790 5787 5785 5782 5780 5777 5774 5771 5768 5764 5761 5758 5754
5741 5747 5753 5757 5761 5763 5768 5773 5777 5780 5784 5787 5790 5793 5795 5797 5799 5800 5801 5802 5802 5803 5803 5803 5802 5801 5800 5799 5798 5796 5795 5793 5791 5789 5786 5784 5782 5779 5777 5774 5771 5768 5766 5762 5759 5756 5753 5749 5746
5733 5740 5744 5747 5751 5755 5759 5763 5770 5772 5776 5779 5783 5785 5787 5789 5790 5792 5793 5794 5794 5794 5794 5794 5794 5793 5792 5791 5789 5788 5787 5785 5783 5780 5778 5776 5773 5771 5768 5766 5763 5760 5757 5754 5751 5748 5744 5741 5737
5727 5731 5735 5738 5741 5745 5749 5753 5762 5765 5769 5772 5775 5777 5779 5781 5782 5783 5784 5785 5786 5786 5786 5785 5785 5784 5783 5782 5781 5779 5778 5776 5774 5772 5770 5767 5765 5763 5760 5757 5755 5752 5749 5746 5743 5739 5736 5732 5729
5716 5720 5724 5727 5730 5736 5742 5743 5751 5758 5762 5764 5766 5768 5770 5772 5773 5774 5775 5776 5777 5777 5777 5777 5776 5775 5774 5773 5772 5771 5769 5767 5765 5763 5761 5759 5757 5754 5752 5749 5746 5744 5741 5738 5734 5731 5727 5724 5720
5704 5710 5714 5717 5720 5727 5734 5735 5743 5751 5754 5755 5758 5760 5761 5763 5764 5765 5766 5767 5767 5768 5768 5768 5767 5767 5766 5765 5764 5762 5760 5759 5757 5755 5753 5751 5748 5746 5743 5741 5738 5735 5732 5729 5726 5722 5719 5715 5711
5696 5701 5707 5711 5715 5720 5724 5727 5736 5741 5744 5746 5749 5751 5753 5754 5755 5756 5757 5758 5758 5758 5759 5759 5758 5758 5757 5756 5755 5753 5752 5750 5748 5746 5744 5742 5740 5737 5735 5733 5730 5727 5724 5721 5717 5713 5709 5705 5701
5686 5691 5699 5703 5705 5710 5713 5720 5726 5731 5735 5738 5740 5742 5744 5745 5746 5747 5748 5748 5749 5749 5750 5750 5749 5749 5748 5747 5746 5744 5743 5741 5739 5737 5736 5733 5731 5729 5727 5724 5722 5719 5715 5712 5708 5704 5700 5696 5692
5678 5684 5687 5691 5696 5700 5705 5712 5719 5723 5726 5729 5731 5733 5735 5736 5737 5738 5739 5740 5740 5740 5741 5741 5740 5740 5739 5738 5737 5736 5734 5733 5731 5729 5727 5725 5723 5721 5718 5716 5713 5710 5706 5703 5699 5695 5691 5687 5682
5667 5673 5678 5683 5687 5692 5697 5706 5712 5715 5718 5720 5722 5724 5726 5727 5729 5730 5730 5731 5731 5732 5732 5732 5732 5731 5730 5730 5729 5727 5726 5724 5723 5721 5719 5717 5714 5712 5709 5707 5704 5701 5697 5694 5690 5686 5681 5677 5672
5659 5665 5670 5676 5680 5685 5690 5700 5703 5707 5709 5712 5714 5716 5718 5719 5720 5721 5722 5723 5723 5723 5723 5723 5723 5723 5722 5721 5720 5719 5718 5716 5715 5713 5711 5708 5706 5703 5701 5698 5695 5692 5688 5684 5680 5676 5671 5667 5662